Detroit, MI

4:59 PM EDT on September 22, 2017 (GMT -0400)
Detroit City

Weather History for KDET - March, 2014

Change the Weather History Date:

Monday, March 10, 2014

  Actual Average Record
Temperature  
Mean Temperature 42 °F -  
Max Temperature 48 °F 43 °F 66 °F (1977)
Min Temperature 37 °F 26 °F 10 °F (2003)
Degree Days  
Heating Degree Days 22    
Moisture  
Dew Point 31 °F    
Average Humidity 64    
Maximum Humidity 73    
Minimum Humidity 54    
Precipitation  
Precipitation 0.00 in - - ()
Sea Level Pressure  
Sea Level Pressure 29.68 in    
Wind  
Wind Speed 12 mph (WSW)    
Max Wind Speed 21 mph    
Max Gust Speed 29 mph    
Visibility 9 miles    
Events      
Averages and records for this station are not official NWS values.
T = Trace of Precipitation, MM = Missing Value Source: NWS Daily Summary

Daily Weather History Graph

Daily Weather History Graph

Search for Another Location

Airport or City:

Trip Planner

Search our weather history database for the weather conditions in past years. The results will help you decide how hot, cold, wet, or windy it might be!

Date:

Astronomy

Mar. 10, 2014 Rise Set
Actual Time 7:52 AM EDT 7:32 PM EDT
Civil Twilight 7:24 AM EDT 8:00 PM EDT
Nautical Twilight 6:52 AM EDT 8:33 PM EDT
Astronomical Twilight 6:19 AM EDT 9:06 PM EDT
Moon 2:10 PM EDT (3/10) 4:08 AM EDT (3/10)
Length of Visible Light 12h 36m
Length of Day
11h 40m
Waxing Gibbous, 70% of the Moon is Illuminated
Mar 10
Waxing Gibbous
Mar 16
Full
Mar 23
Last Quarter
Mar 30
New
Apr 7
First Quarter

Hourly Weather History & Observations

Time (EDT) Temp. Windchill Dew Point Humidity Pressure Visibility Wind Dir Wind Speed Gust Speed Precip Events Conditions
12:53 AM 37.9 °F 29.2 °F 27.0 °F 65% 29.83 in 10.0 mi WSW 15.0 mph 23.0 mph N/A   Clear
1:53 AM 37.9 °F 29.2 °F 27.0 °F 65% 29.81 in 10.0 mi WSW 15.0 mph 23.0 mph N/A   Mostly Cloudy
2:53 AM 37.9 °F 29.2 °F 28.0 °F 68% 29.79 in 10.0 mi WSW 15.0 mph 20.7 mph N/A   Overcast
3:53 AM 37.9 °F 30.5 °F 28.0 °F 68% 29.77 in 10.0 mi WSW 11.5 mph - N/A   Overcast
4:53 AM 37.9 °F 32.7 °F 28.9 °F 70% 29.75 in 9.0 mi SW 6.9 mph - N/A   Overcast
5:53 AM 37.9 °F 31.5 °F 28.9 °F 70% 29.73 in 9.0 mi SW 9.2 mph - N/A   Overcast
6:53 AM 37.9 °F 32.7 °F 28.9 °F 70% 29.73 in 9.0 mi SW 6.9 mph - N/A   Overcast
7:53 AM 37.9 °F 32.7 °F 30.0 °F 73% 29.72 in 8.0 mi SW 6.9 mph - N/A   Scattered Clouds
8:53 AM 37.9 °F 33.5 °F 30.0 °F 73% 29.73 in 7.0 mi SW 5.8 mph - N/A   Clear
9:53 AM 39.9 °F 33.4 °F 30.0 °F 68% 29.71 in 7.0 mi SW 10.4 mph - N/A   Overcast
10:53 AM 41.0 °F 35.2 °F 30.9 °F 67% 29.70 in 7.0 mi SW 9.2 mph - N/A   Overcast
11:53 AM 42.1 °F 35.2 °F 30.9 °F 65% 29.69 in 8.0 mi SW 12.7 mph 19.6 mph N/A   Overcast
12:53 PM 44.1 °F 39.0 °F 32.0 °F 63% 29.67 in 8.0 mi SW 9.2 mph - N/A   Scattered Clouds
1:53 PM 46.0 °F 41.0 °F 32.0 °F 58% 29.63 in 9.0 mi SW 10.4 mph - N/A   Clear
2:53 PM 46.9 °F - 33.1 °F 59% 29.60 in 9.0 mi SW 16.1 mph - N/A   Clear
3:53 PM 48.9 °F - 33.1 °F 54% 29.57 in 10.0 mi SW 13.8 mph - N/A   Clear
4:53 PM 48.9 °F - 33.1 °F 54% 29.57 in 10.0 mi WSW 20.7 mph 28.8 mph N/A   Clear
5:53 PM 48.0 °F - 33.1 °F 56% 29.55 in 10.0 mi WSW 17.3 mph 25.3 mph N/A   Clear
6:53 PM 48.0 °F - 32.0 °F 54% 29.57 in 10.0 mi WSW 15.0 mph - N/A   Clear
7:53 PM 46.9 °F - 32.0 °F 56% 29.60 in 10.0 mi WSW 12.7 mph 20.7 mph N/A   Clear
8:53 PM 46.0 °F 39.6 °F 33.1 °F 61% 29.61 in 10.0 mi WSW 15.0 mph - N/A   Clear
9:53 PM 46.0 °F 40.6 °F 34.0 °F 63% 29.63 in 10.0 mi WSW 11.5 mph - N/A   Clear
10:53 PM 44.1 °F 40.8 °F 34.0 °F 68% 29.65 in 10.0 mi West 5.8 mph - N/A   Clear
11:53 PM 43.0 °F 39.5 °F 34.0 °F 71% 29.65 in 10.0 mi WSW 5.8 mph - N/A   Clear